Date String (YYYY-MM-DD hh:mm:ss) UTC,Instrument flags,Ambient pressure (hPa),Sample flow (lpm),Bypass flow (lpm),Sample temperature (°C),Ambient temperature (°C),ASC tube jacket temperature (°C),LED temperature (°C),Box temperature (°C),Sample RH (%),Span deviation,Mass concentration (μg/m³),Mass concentration (μg/m³),Mass concentration (μg/m³)
DateTimeUTC,F1_M11,P_M11,Q1_M11,Q2_M11,T1_M11,T2_M11,T3_M11,T4_M11,T5_M11,U1_M11,ZSPAN_M11,X2_M11,X0_M11,X1_M11
2023-03-06 16:00:00,,0824.4,4.99,0.00,22.2,21.4,00.0,30.9,23.8,08.9,0000.0,0002.96,0008.04,0001.90
2023-03-06 16:01:00,,0824.5,5.00,0.00,22.1,21.1,00.0,30.9,23.8,08.8,0000.0,0002.92,0007.83,0001.89
2023-03-06 16:02:00,,0824.6,4.99,0.00,22.1,20.8,00.0,30.9,23.7,08.9,0000.0,0002.91,0007.75,0001.88
2023-03-06 16:03:00,,0824.5,4.99,0.00,22.1,20.7,00.0,30.9,23.7,09.2,0000.0,0002.87,0007.76,0001.87
2023-03-06 16:04:00,,0824.5,4.99,0.00,22.1,20.5,00.0,30.9,23.7,09.2,0000.0,0002.72,0006.69,0001.85
2023-03-06 16:05:00,,0824.6,5.01,0.00,22.1,20.4,00.0,30.9,23.7,09.3,0000.0,0002.73,0007.51,0001.86
2023-03-06 16:06:00,,0824.6,5.01,0.00,22.0,20.2,00.0,30.9,23.6,09.2,0000.0,0002.70,0007.43,0001.84
2023-03-06 16:07:00,,0824.7,4.99,0.00,22.0,20.2,00.0,30.9,23.6,09.0,0000.0,0002.63,0007.21,0001.81
2023-03-06 16:08:00,,0824.6,4.99,0.00,22.0,20.1,00.0,30.8,23.6,08.8,0000.0,0002.58,0007.07,0001.78
2023-03-06 16:09:00,,0824.6,5.00,0.00,21.9,20.0,00.0,30.8,23.5,08.6,0000.0,0002.52,0007.11,0001.78
2023-03-06 16:10:00,,0824.5,5.00,0.00,21.9,19.9,00.0,30.8,23.4,08.7,0000.0,0002.53,0007.36,0001.79
2023-03-06 16:11:00,,0824.7,5.01,0.00,21.8,19.9,00.0,30.7,23.3,08.7,0000.0,0002.51,0007.22,0001.80
2023-03-06 16:12:00,,0824.6,5.01,0.00,21.8,19.8,00.0,30.7,23.3,09.0,0000.0,0002.59,0007.28,0001.81
2023-03-06 16:13:00,,0824.7,5.00,0.00,21.7,19.8,00.0,30.7,23.3,08.8,0000.0,0002.68,0007.27,0001.84
2023-03-06 16:14:00,,0824.7,5.01,0.00,21.7,20.6,00.0,30.7,23.5,08.8,0000.0,0002.69,0007.13,0001.87
2023-03-06 16:15:00,,0824.8,4.97,0.00,21.9,22.2,00.0,30.7,23.8,09.0,0000.0,0002.75,0006.70,0001.89
2023-03-06 16:16:00,,0824.5,5.02,0.00,22.0,22.9,00.0,30.7,24.0,08.5,0000.0,0002.79,0006.40,0001.87
2023-03-06 16:17:00,,0824.5,5.01,0.00,22.1,22.3,00.0,30.7,23.9,08.6,0000.0,0002.79,0006.35,0001.87
2023-03-06 16:18:00,,0824.5,5.01,0.00,22.1,21.7,00.0,30.8,23.8,08.5,0000.0,0002.81,0006.69,0001.89
2023-03-06 16:19:00,,0824.4,4.99,0.00,22.0,21.3,00.0,30.8,23.7,08.5,0000.0,0002.81,0006.72,0001.91
2023-03-06 16:20:00,,0824.5,5.01,0.00,22.0,21.0,00.0,30.8,23.6,07.8,0000.0,0002.81,0006.44,0001.90
2023-03-06 16:21:00,,0824.6,5.01,0.00,22.0,20.7,00.0,30.8,23.5,07.7,0000.0,0002.76,0006.13,0001.89
2023-03-06 16:22:00,,0824.5,5.02,0.00,21.9,20.4,00.0,30.8,23.5,07.7,0000.0,0002.76,0006.16,0001.88
2023-03-06 16:23:00,,0824.4,4.98,0.00,21.9,20.3,00.0,30.7,23.4,08.1,0000.0,0002.73,0006.20,0001.86
2023-03-06 16:24:00,,0824.4,4.99,0.00,21.8,20.1,00.0,30.7,23.4,08.0,0000.0,0002.64,0006.17,0001.83
2023-03-06 16:25:00,,0824.5,5.01,0.00,21.8,20.0,00.0,30.7,23.4,07.9,0000.0,0002.58,0006.58,0001.80
2023-03-06 16:26:00,,0824.4,5.00,0.00,21.8,20.0,00.0,30.7,23.3,07.9,0000.0,0002.52,0006.29,0001.78
2023-03-06 16:27:00,,0824.4,4.99,0.00,21.7,19.8,00.0,30.7,23.3,07.8,0000.0,0002.43,0005.59,0001.76
2023-03-06 16:28:00,,0824.4,5.00,0.00,21.7,19.8,00.0,30.6,23.2,07.6,0000.0,0002.44,0005.77,0001.74
2023-03-06 16:29:00,,0824.5,4.99,0.00,21.7,19.7,00.0,30.6,23.2,07.6,0000.0,0002.43,0005.53,0001.72
2023-03-06 16:30:00,,0824.4,5.00,0.00,21.6,19.7,00.0,30.6,23.1,07.2,0000.0,0002.44,0006.45,0001.68
2023-03-06 16:31:00,,0824.4,5.00,0.00,21.7,21.2,00.0,30.5,23.5,07.4,0000.0,0002.40,0006.88,0001.65
2023-03-06 16:32:00,,0824.4,5.03,0.00,21.8,22.5,00.0,30.6,23.8,07.4,0000.0,0002.38,0007.36,0001.63
2023-03-06 16:33:00,,0824.4,5.02,0.00,21.9,22.4,00.0,30.6,23.9,07.4,0000.0,0002.38,0007.41,0001.61
2023-03-06 16:34:00,,0824.3,5.00,0.00,22.0,21.8,00.0,30.7,23.7,07.5,0000.0,0002.36,0007.50,0001.60
2023-03-06 16:35:00,,0824.3,5.02,0.00,21.9,21.3,00.0,30.7,23.6,07.5,0000.0,0002.33,0007.40,0001.59
2023-03-06 16:36:00,,0824.3,4.98,0.00,21.9,21.0,00.0,30.7,23.6,07.7,0000.0,0002.38,0007.36,0001.59
2023-03-06 16:37:00,,0824.3,5.01,0.00,21.9,20.7,00.0,30.7,23.5,07.7,0000.0,0002.44,0007.52,0001.59
2023-03-06 16:38:00,,0824.3,5.03,0.00,21.9,20.7,00.0,30.7,23.5,07.6,0000.0,0002.46,0007.54,0001.58
2023-03-06 16:39:00,,0824.3,5.01,0.00,21.8,20.3,00.0,30.6,23.4,07.4,0000.0,0002.49,0007.57,0001.59
2023-03-06 16:40:00,,0824.3,4.99,0.00,21.8,20.2,00.0,30.6,23.3,07.4,0000.0,0002.48,0007.50,0001.60
2023-03-06 16:41:00,,0824.3,5.00,0.00,21.8,20.1,00.0,30.6,23.3,07.3,0000.0,0002.47,0007.43,0001.59
2023-03-06 16:42:00,,0824.4,5.00,0.00,21.7,19.9,00.0,30.6,23.2,07.3,0000.0,0002.42,0006.56,0001.60
2023-03-06 16:43:00,,0824.4,5.00,0.00,21.6,19.8,00.0,30.6,23.1,07.4,0000.0,0002.44,0006.07,0001.62
2023-03-06 16:44:00,,0824.3,4.99,0.00,21.6,19.7,00.0,30.5,23.1,07.1,0000.0,0002.41,0005.10,0001.62
2023-03-06 16:45:00,,0824.3,5.01,0.00,21.5,19.6,00.0,30.5,23.0,07.1,0000.0,0002.44,0005.06,0001.61
2023-03-06 16:46:00,,0824.3,5.00,0.00,21.5,19.7,00.0,30.5,23.1,07.3,0000.0,0002.38,0004.56,0001.60
2023-03-06 16:47:00,,0824.3,4.99,0.00,21.6,21.2,00.0,30.5,23.3,07.4,0000.0,0002.36,0005.88,0001.59
2023-03-06 16:48:00,,0824.3,4.97,0.00,21.7,22.4,00.0,30.5,23.7,07.3,0000.0,0002.35,0006.04,0001.57
2023-03-06 16:49:00,,0824.3,4.99,0.00,21.8,22.2,00.0,30.5,23.7,07.4,0000.0,0002.25,0005.57,0001.55
2023-03-06 16:50:00,,0824.3,5.01,0.00,21.9,21.7,00.0,30.6,23.6,07.5,0000.0,0002.18,0005.49,0001.52
2023-03-06 16:51:00,,0824.3,5.02,0.00,21.8,21.3,00.0,30.6,23.5,07.3,0000.0,0002.14,0005.51,0001.51
2023-03-06 16:52:00,,0824.3,4.99,0.00,21.8,20.9,00.0,30.6,23.4,07.2,0000.0,0002.07,0006.41,0001.50
2023-03-06 16:53:00,,0824.2,5.00,0.00,21.7,20.5,00.0,30.6,23.3,07.1,0000.0,0002.01,0006.85,0001.48
2023-03-06 16:54:00,,0824.2,5.01,0.00,21.7,20.3,00.0,30.6,23.3,06.9,0000.0,0001.96,0006.76,0001.46
2023-03-06 16:55:00,,0824.2,5.00,0.00,21.7,20.2,00.0,30.6,23.2,07.1,0000.0,0001.98,0006.75,0001.46
2023-03-06 16:56:00,,0824.3,4.98,0.00,21.6,20.0,00.0,30.5,23.1,07.1,0000.0,0001.95,0006.67,0001.47
2023-03-06 16:57:00,,0824.3,4.97,0.00,21.6,19.9,00.0,30.5,23.0,07.2,0000.0,0001.98,0006.75,0001.49
2023-03-06 16:58:00,,0824.4,5.01,0.00,21.5,19.8,00.0,30.5,23.0,07.4,0000.0,0002.00,0006.50,0001.50
2023-03-06 16:59:00,,0824.3,5.01,0.00,21.5,19.7,00.0,30.5,22.9,07.3,0000.0,0002.00,0006.10,0001.52
